User: anonymous   Login
Location: Unspecified
(0.0000°N, 0.0000°E)
Time: 21:56:15
(UTC+02:00)
Language:

Cosmos 1295 Rocket - Orbit

View from above orbital plane
View from above orbital plane
View from above satellite
View from above satellite

Ground track
Ground track

The orbit data is extracted from the following two-line orbital elements,

1 12682U 81077B   16238.96794162 -.00000058 +00000-0 -72778-4 0  9996
2 12682 082.9141 236.9248 0035497 092.0601 325.4360 13.78524518761928
Epoch (UTC): 25 August 2016 23:13:50
Eccentricity: 0.0035497
inclination: 82.9141°
perigee height: 943 km
apogee height: 995 km
right ascension of ascending node: 236.9248°
argument of perigee: 92.0601°
revolutions per day: 13.78524518
mean anomaly at epoch: 325.4360°
orbit number at epoch: 76192

The dashed part of the orbit path shows where the satellite is in the earth's shadow,  

DLR